STARLINK-1922, 46753

Orbit data source: Space-Track

STARLINK-1922, 46753 is a payload satellite owned by SpaceX/Seattle (US) in LEO that was launched on Sat, 24 Oct 2020 UTC via an FALCON 9 launch vehicle from the Air Force Eastern Test Range (AFETR). Payload-class satellites include a variety of spacecraft equipped with specific instruments for various scientific and technological missions. These include communications satellites like Starlink; space stations such as the ISS; scientific satellites like the Hubble; Earth observation satellites from companies like Planet Labs, Umbra, and HawkEye 360; GPS; miniature CubeSats for education and research; and military/defense satellites.

Loading next visibility...
Identifier
46753, 2020-074Q
Orbit
LEO
Country
Flag of USUS
Related business
Manufacturer
SpaceX/Seattle
Mission
Partially operational Commercial Communications
Bus & Motor
STARLINK, Unknown motor
Mass
260 kg wet, ~248 kg dry
Launch date (UTC)
2020-10-24 (6 years ago)
Launch vehicle
FALCON 9
Launch site
Air Force Eastern Test Range (AFETR)
Object type
Payload
Rocket body
Debris
Shape & HBR
Box + 1 Pan, 10.1 m
Radar Cross Section
13.562 m², Large (>1 m²)

Expand to show TLE details & history
Last TLE update: 4 hours ago

TLE from 4 hours ago
0 STARLINK-1922
1 46753U 20074Q   26126.66668981  .00062733  00000-0  36232-3 0  9995
2 46753  53.0427 356.7801 0006212 176.1342 201.1187 15.78039667  6012
Epoch: 2026-05-06T16:00Z
TLE epoch observation values (Epoch: 2026-05-06T16:00:01.999Z)
Latitude
13.69494°
Longitude
-97.24779°
Altitude
340.04 km
Speed
7.705 km/s
True Right ascension
00h 29m 08s
True Declination
13° 36' 40"
Sunlit
Object was in daylight at epoch
Visualization orbit readout
Latitude
Unknown
Longitude
Unknown
Altitude
Unknown
Speed
Unknown
Apparent Right ascension
Unknown
Apparent Declination
Unknown
Sunlit
N/A
Visualization observer readout
Local Sidereal Time
04:04:36
Azimuth
Unknown
Elevation
Unknown
Doppler factor
Unknown
Orbital elements
Apogee altitude
340.447 km
Perigee altitude
332.105 km
Semi-major axis
6,714.413 km
Eccentricity
0.00062
Inclination
53.0427°
RAAN
356.7801°
Arg. of periapsis
176.1342°
True anomaly
201.09307°
Mean anomaly
201.1187°
Eccentric anomaly
201.10588°
Mean motion
3.94486 °/min
Orbital period
91.26 mins
BSTAR
0.00036232
Loading maneuver chart data...
Computing Atmospheric mass density...

Documentation

Showing up to 5 results
|